Location: Asheville, NC
(35.6000°N, 82.5500°W)
Time: 19:39:14
(UTC-04:00)

RS-15 - Pass Details

Date: 09 March 2018
Orbit: 1890 x 2154 km, 64.8° (Epoch: 23 June)

Event Time Altitude Azimuth Distance (km) Brightness Sun altitude
Exits shadow 23:07:23 12° 48° (NE) 4,492 9.9 -51.9°
Drops below altitude 10° 23:07:56 10° 46° (NE) 4,623 10.0 -52.0°
Sets 23:11:46 0° 38° (NE) 5,603 10.5 -52.5°
